Wind_Speed
27 29 30 28 27 27 31 39 45 45 39 29 30 34 34 35 38 40 40 38 38 40 41 40 37 32 27 24 25 28 30 30 29 26 25 26 26 25 25 26 27 27 26 27 28 26 24 24 24 24 24 24 23 21 20 20 21 23 24 25 25 25 26 27 25 24 24 25 24 25 27 27 26 24 22 22 21 20 19 18 18 18 18 18 18 18 17
31 31 29 27 27 25 24 30 38 42 37 30 35 40 39 38 40 43 43 42 41 42 43 42 38 33 28 25 24 27 30 31 30 28 27 27 27 27 27 27 28 28 28 28 29 27 26 26 27 25 24 24 24 25 24 22 23 24 24 23 24 23 23 23 23 22 23 25 26 27 27 27 26 25 23 23 23 22 20 19 18 18 18 18 18 18 18
38 36 33 28 26 26 24 25 32 41 42 36 37 42 44 44 44 45 46 46 45 44 45 45 41 36 31 28 26 26 28 29 28 29 30 29 29 29 29 28 29 29 29 29 30 29 28 28 28 26 25 23 21 22 22 19 19 23 23 20 20 21 22 21 20 20 22 23 25 28 27 25 25 24 24 23 23 23 23 21 20 19 18 18 18 18 18
39 40 39 34 30 28 26 27 32 42 47 42 37 39 44 47 46 46 47 48 47 46 47 47 43 39 35 32 28 26 27 27 26 27 29 30 30 30 30 30 30 30 30 30 30 30 29 29 29 28 27 24 21 21 20 18 17 20 20 18 18 20 23 24 23 23 24 23 25 27 27 24 23 23 24 24 24 24 24 24 23 21 19 18 18 18 18
35 35 36 36 35 32 29 30 34 41 45 43 39 38 42 46 48 47 47 49 50 49 49 48 44 40 37 35 33 29 28 27 26 25 26 28 29 30 31 32 31 31 32 32 32 32 31 31 30 31 29 26 25 25 24 23 21 19 19 17 17 19 21 22 22 24 25 25 26 27 26 25 24 25 27 27 26 26 25 26 25 24 22 21 20 20 19
32 32 30 30 33 35 34 33 34 36 39 41 41 41 43 46 48 47 46 48 50 49 48 48 47 43 38 36 35 33 31 30 28 26 24 25 27 29 31 33 33 33 33 33 32 32 32 32 31 32 31 29 29 29 28 27 25 23 22 21 20 19 19 18 18 19 21 23 25 26 26 26 26 27 28 28 27 27 27 26 25 24 23 22 23 23 22
27 28 28 29 32 35 37 36 34 33 36 38 40 41 43 45 47 47 46 46 49 49 49 48 49 47 43 38 35 34 33 33 31 29 28 27 27 27 29 31 33 34 34 34 34 34 33 33 33 33 33 32 32 33 32 31 28 26 25 24 23 22 21 20 19 19 19 21 22 24 27 29 30 29 29 27 27 28 28 26 25 24 23 23 24 24 24
24 25 28 30 32 33 35 37 36 35 36 37 38 38 39 39 41 43 45 46 48 49 49 48 47 46 44 42 39 36 35 36 36 34 32 31 30 29 29 29 32 34 35 35 36 36 36 35 35 35 34 34 35 35 34 34 34 31 28 25 24 23 23 23 23 22 21 21 22 23 24 27 30 31 31 29 28 28 28 28 27 25 23 23 25 26 27
23 24 26 28 28 29 30 34 37 39 40 40 39 38 39 39 37 36 39 43 46 47 47 48 47 47 45 44 43 42 39 39 40 39 37 35 33 32 31 31 31 32 34 35 36 37 38 38 37 37 37 36 37 38 37 36 36 36 35 32 29 27 26 25 26 26 24 22 22 22 21 22 24 27 29 29 29 29 29 28 28 27 25 24 25 27 28
21 23 25 26 26 26 27 29 33 36 39 40 39 39 40 40 38 35 35 39 43 46 46 46 47 48 48 45 43 43 42 42 42 43 43 40 37 34 33 33 33 33 33 34 35 36 37 38 38 38 38 38 38 39 39 38 37 37 37 37 35 33 31 29 28 28 27 26 25 24 22 20 20 22 24 25 27 29 30 29 29 30 29 28 28 27 28
19 23 26 28 28 26 24 24 26 29 33 35 35 36 39 40 38 37 38 39 41 44 46 46 45 44 45 45 44 41 41 43 44 44 44 43 40 38 37 36 36 36 35 34 35 36 37 37 38 38 39 39 39 39 39 39 39 38 38 39 39 37 36 34 32 31 30 29 28 28 26 23 22 23 23 23 24 26 27 29 31 32 33 33 32 30 29
19 22 25 28 29 27 25 25 25 26 28 29 31 33 37 39 38 37 39 40 41 42 44 46 46 42 41 44 46 44 41 41 42 44 43 42 41 40 40 40 38 38 38 37 37 38 38 38 39 39 39 39 39 39 39 40 40 40 40 40 41 41 40 39 37 35 33 31 30 30 30 27 25 25 24 24 24 24 25 26 29 32 34 35 35 33 32
22 23 25 26 27 26 25 25 26 26 25 26 28 30 32 35 37 38 39 40 41 41 42 43 43 41 39 40 43 45 44 42 41 41 42 41 41 41 42 42 41 41 40 40 40 40 40 40 40 41 41 41 41 41 40 41 42 42 43 43 42 43 43 43 42 41 38 36 34 33 33 31 30 29 28 27 27 27 26 27 28 30 32 34 35 35 35
21 24 26 27 28 28 26 26 27 27 26 27 28 28 28 30 33 34 36 39 41 41 41 40 40 41 41 39 38 40 41 39 38 39 40 40 41 42 42 43 43 43 43 42 42 41 41 41 41 41 42 43 43 43 42 43 43 44 45 45 45 45 45 45 46 45 44 42 40 38 37 35 34 33 32 31 31 30 30 30 31 31 31 32 33 34 35
17 20 24 27 29 30 29 30 31 30 29 29 29 28 27 28 28 29 31 35 39 40 41 41 40 41 41 40 38 38 38 37 35 36 39 41 42 43 43 43 43 44 44 45 45 44 42 42 41 42 43 44 44 44 44 44 45 45 46 47 47 47 47 47 48 48 47 46 45 43 42 40 38 37 35 35 34 34 32 31 32 32 31 31 32 33 34
16 18 21 22 24 27 28 30 31 31 32 32 31 30 30 29 28 29 31 33 36 38 40 41 40 40 40 39 37 38 40 39 37 37 39 42 44 44 44 44 44 45 46 47 47 46 45 44 44 43 44 44 45 45 45 45 45 45 46 46 47 47 48 49 49 49 50 49 48 47 45 43 42 41 40 39 38 37 36 35 34 34 33 33 32 33 33
17 18 20 20 22 24 24 25 26 28 30 32 33 33 33 32 32 32 32 33 34 36 37 39 40 41 42 41 39 38 39 40 39 38 40 43 45 46 45 46 47 47 48 48 47 47 47 46 46 46 46 46 46 46 46 46 46 46 46 46 46 47 48 49 49 49 50 50 50 50 48 46 45 44 44 43 42 41 40 39 39 38 38 37 36 36 34
20 20 21 22 23 25 26 26 26 26 27 29 32 34 35 36 36 36 35 36 36 36 36 38 40 42 43 43 42 41 41 41 41 40 40 42 44 46 46 46 47 47 48 48 47 47 47 46 46 47 47 47 47 47 47 47 47 47 47 47 47 47 47 48 49 49 50 50 51 51 51 50 48 47 46 46 45 45 44 43 42 42 42 42 41 40 39
22 23 25 25 26 27 28 28 28 28 28 29 30 31 33 35 37 38 38 38 38 38 39 40 41 40 41 42 42 42 42 42 43 42 42 42 44 46 46 46 47 47 48 48 48 48 48 47 47 47 47 47 48 48 48 48 48 48 48 47 47 48 48 48 49 49 50 50 51 51 51 51 50 49 48 47 47 46 46 46 46 46 46 45 45 44 43
24 25 28 29 29 29 30 30 30 30 30 31 31 31 32 33 34 36 38 39 39 40 41 42 42 41 40 40 40 40 41 42 42 41 41 41 43 45 46 46 46 48 49 49 50 50 50 50 49 49 49 49 49 49 49 49 49 49 49 48 48 48 49 49 50 50 50 50 50 50 50 50 50 50 50 50 49 48 47 48 49 49 49 48 48 47 46
27 28 30 32 32 31 32 32 33 32 32 31 31 32 34 34 33 33 35 37 39 41 42 43 44 43 43 42 42 41 41 41 41 41 40 40 41 43 44 45 46 47 48 49 50 50 51 51 51 51 51 51 50 50 50 50 50 50 50 50 50 50 50 50 51 51 51 51 51 51 51 51 51 51 51 51 51 50 49 49 50 51 51 51 50 49 48
31 30 31 32 34 35 35 35 35 36 35 34 32 32 34 35 35 35 35 36 38 40 42 43 44 45 45 44 44 44 44 43 43 42 41 40 40 41 42 44 45 46 47 47 48 49 50 50 50 51 51 51 51 51 51 51 52 52 52 52 52 52 52 52 52 52 52 52 52 52 52 52 52 51 51 52 52 51 51 51 51 52 52 52 52 51 49
33 32 32 33 33 34 35 35 35 36 37 37 36 35 34 34 36 37 36 36 37 38 40 41 43 45 45 45 45 46 46 46 45 45 44 43 42 42 42 43 43 44 44 45 46 47 48 48 49 49 49 49 50 50 50 51 51 52 52 52 52 53 53 53 53 53 54 54 54 54 54 54 54 53 52 52 52 52 52 52 52 52 53 53 53 52 51
34 34 34 34 33 33 34 35 36 36 37 38 39 39 38 37 37 38 37 36 36 37 37 38 39 41 43 45 46 46 46 46 46 47 47 46 46 46 45 44 43 43 44 44 45 45 46 46 46 47 47 48 48 48 49 49 49 50 50 51 51 52 52 53 53 54 54 54 55 55 55 55 55 55 54 54 54 53 53 53 52 53 53 54 54 54 53
35 35 35 35 34 33 35 37 37 37 38 39 39 39 39 40 40 40 39 38 37 36 37 37 38 38 39 41 42 43 44 44 45 46 47 48 48 48 47 46 46 45 45 46 46 46 46 46 46 46 47 47 48 48 48 48 48 48 49 49 49 50 51 52 52 53 53 54 54 55 55 55 55 56 55 55 55 55 55 55 54 54 54 54 55 55 55
35 35 36 36 35 34 35 37 38 39 39 39 39 39 39 40 40 40 40 40 39 38 37 37 37 38 38 38 39 40 41 42 42 43 45 46 48 48 47 47 47 47 47 48 48 48 47 47 47 47 48 48 48 48 48 48 48 48 48 49 49 49 50 51 51 52 52 53 53 54 55 55 55 56 56 56 56 56 56 56 56 55 55 56 56 57 57
34 34 34 36 36 36 36 36 37 39 40 41 41 40 40 41 42 41 40 41 41 40 39 38 37 38 37 37 39 40 40 40 40 40 42 44 45 45 46 47 47 48 48 48 48 48 48 48 48 49 49 49 49 49 50 49 50 50 50 50 50 50 50 51 52 52 53 53 53 54 54 55 55 56 56 56 56 56 56 56 56 56 56 56 57 58 58
34 34 35 35 36 36 36 35 36 38 40 41 42 41 41 42 43 43 42 41 42 41 40 39 39 38 37 37 38 39 40 40 40 39 39 41 42 42 44 45 45 46 46 47 47 47 48 48 48 49 49 50 50 50 50 51 51 52 52 52 52 52 52 52 53 53 53 54 54 55 55 56 56 57 57 57 57 56 56 57 57 57 57 57 58 58 59
34 34 34 34 33 33 33 34 35 36 38 39 40 41 41 41 41 42 42 42 43 42 41 40 40 39 38 38 39 39 39 39 39 39 39 40 41 42 42 43 43 43 44 45 45 45 46 46 47 47 48 49 49 49 50 51 51 52 52 53 53 53 53 54 54 55 55 55 56 56 56 57 57 58 59 59 59 59 59 58 58 58 58 58 58 59 59
34 33 32 32 32 32 31 32 33 34 35 36 36 37 38 38 39 41 41 41 42 42 41 41 40 39 39 40 41 40 38 37 37 38 39 40 41 41 41 41 41 41 42 42 43 43 43 43 44 45 46 46 47 47 48 49 49 50 51 51 52 52 53 53 54 55 56 56 57 57 58 58 59 59 60 61 61 61 61 61 61 61 61 60 60 59 60
32 32 33 33 33 33 32 32 33 34 35 35 35 36 35 36 37 39 40 40 41 41 41 41 41 40 41 41 41 40 40 39 38 38 39 40 40 40 39 39 40 40 40 40 41 41 41 41 41 42 43 43 44 45 45 46 47 48 48 49 50 51 51 51 52 53 54 55 56 57 58 58 59 60 60 61 62 63 63 63 64 64 63 63 63 62 62
31 34 35 36 35 34 34 33 32 33 35 36 36 37 36 35 36 37 39 40 40 40 40 41 41 41 42 41 40 40 41 42 42 41 41 40 40 39 39 39 39 39 39 39 39 40 40 40 40 41 41 41 42 43 44 44 45 46 47 47 48 49 49 50 51 51 52 53 54 55 56 57 58 59 60 61 62 63 63 64 65 65 66 66 65 65 65
33 33 34 35 36 36 36 35 33 33 34 35 36 37 37 36 36 36 37 39 39 37 37 38 40 41 42 42 41 41 41 42 44 44 43 42 41 41 41 41 40 40 39 40 40 40 40 40 41 41 41 41 42 43 44 45 45 46 46 47 47 48 48 49 50 51 52 53 54 55 55 56 57 58 59 60 61 62 63 64 65 66 67 67 67 67 67
37 35 34 34 34 35 36 37 36 34 34 34 35 36 36 36 36 36 37 38 38 36 35 36 39 41 42 43 43 43 41 39 40 43 44 43 43 44 44 44 44 43 43 43 43 43 43 44 44 44 44 44 45 45 46 46 46 47 47 48 48 49 49 50 51 51 52 53 55 55 56 57 58 59 59 60 61 62 63 64 65 66 67 67 68 68 69
35 35 34 33 33 34 35 36 37 36 35 34 34 35 35 35 35 35 35 35 35 36 37 37 38 40 41 43 44 45 42 38 37 40 42 44 45 45 46 46 47 47 47 47 47 47 48 48 48 48 47 47 47 47 47 47 47 48 48 48 49 50 50 51 52 53 53 54 56 56 57 58 59 60 61 61 62 63 64 64 65 66 67 68 68 69 70
31 30 30 31 32 33 34 34 35 36 36 35 34 34 34 34 34 34 33 32 32 33 36 38 38 39 39 40 42 44 43 40 38 39 40 42 45 46 47 47 47 48 48 48 49 49 50 50 50 50 50 49 49 49 48 48 49 49 49 50 50 51 52 53 53 54 55 56 57 58 59 60 60 61 62 63 63 64 64 65 66 67 68 69 69 69 70
33 33 32 31 31 32 33 34 35 36 36 36 35 34 34 33 33 33 33 33 31 30 31 34 36 36 36 37 41 44 45 42 40 39 39 40 42 44 47 48 48 48 49 49 49 50 50 50 50 50 50 50 50 49 49 49 49 50 50 51 52 53 53 54 55 56 57 58 59 60 62 63 63 64 65 65 66 66 67 67 68 69 70 71 71 72 73
37 37 37 36 35 34 34 34 35 36 36 36 35 34 34 34 34 33 32 33 33 32 31 32 33 35 36 38 41 44 44 42 39 39 40 40 40 40 42 44 45 46 46 46 46 46 46 46 46 46 46 47 47 47 47 47 48 49 50 51 52 53 54 55 56 57 58 59 61 62 63 64 65 66 67 67 68 69 70 70 71 72 73 74 75 76 77
39 40 40 39 37 35 34 34 35 35 35 35 36 36 35 34 34 33 31 31 32 33 33 33 33 35 37 38 38 39 40 40 39 39 40 40 40 38 38 38 39 39 40 40 41 40 40 40 40 40 40 40 41 41 42 44 46 47 49 51 52 53 54 55 57 58 60 61 62 64 65 66 67 68 69 69 70 71 72 73 74 75 76 78 79 80 81
41 41 40 38 36 35 34 33 34 34 34 33 34 36 36 35 33 32 31 30 31 32 33 34 34 35 36 35 34 35 38 39 39 40 40 40 39 39 38 37 37 36 36 36 36 35 34 34 34 34 34 35 36 37 39 41 44 46 48 50 52 53 55 57 59 60 62 63 65 66 67 68 68 69 70 71 71 72 73 73 74 75 76 78 79 80 80
41 40 40 39 37 36 36 34 33 34 36 36 35 34 34 34 32 30 28 29 30 31 31 31 32 33 34 34 33 33 34 35 37 39 40 40 40 39 38 37 35 33 33 32 32 31 30 30 31 31 32 33 34 35 37 40 43 46 48 50 52 54 56 58 59 61 62 63 63 63 63 63 63 64 64 64 64 65 65 65 66 68 69 71 72 73 74
42 42 42 42 42 41 41 39 36 34 36 39 38 34 32 32 32 30 29 29 30 29 29 29 29 29 31 32 32 31 30 30 31 33 34 35 36 35 33 32 30 29 29 29 29 29 29 30 30 31 32 32 33 35 36 39 42 45 48 50 51 52 53 54 55 55 55 55 55 54 54 54 53 53 53 54 54 54 55 55 56 58 59 61 62 63 65
41 40 40 40 41 41 42 41 38 35 35 36 37 35 32 31 31 32 33 32 30 26 24 25 26 27 28 28 28 27 26 26 26 27 28 29 29 29 28 28 28 28 28 29 29 29 30 30 31 31 32 32 33 34 35 37 40 43 46 48 49 48 47 47 47 47 46 46 46 46 46 46 46 46 47 48 49 50 50 50 51 52 53 54 55 55 56
33 32 32 32 31 31 33 35 37 36 33 32 33 34 32 29 29 30 33 34 34 30 26 23 22 23 26 27 26 26 26 26 26 26 26 26 26 27 27 27 28 28 29 29 29 29 30 31 32 32 32 32 32 33 34 36 38 40 42 44 45 44 42 42 42 42 41 42 42 42 42 43 43 44 46 47 48 48 49 49 50 50 51 51 52 52 52
27 27 25 21 19 19 22 27 33 33 30 28 30 32 31 28 26 26 27 30 33 34 32 28 24 22 22 23 24 24 25 25 25 25 25 25 26 27 27 28 28 29 29 29 29 30 31 31 32 32 32 32 32 33 34 35 36 36 37 39 40 40 39 39 39 39 39 39 40 40 41 41 42 43 45 46 46 47 48 48 49 49 50 50 51 51 51
20 18 14 11 10 10 16 24 28 28 26 25 26 28 29 29 27 25 24 25 28 29 30 29 27 25 23 22 22 23 24 24 24 24 24 25 26 27 27 27 28 28 29 29 30 31 31 32 33 33 33 33 33 34 34 34 34 34 35 35 35 36 37 37 37 38 38 39 39 40 41 41 42 43 44 45 45 46 48 48 49 50 50 50 51 51 51
14 13 10 5 1 6 13 18 21 22 22 22 22 23 25 27 27 25 23 23 23 24 25 25 25 25 24 24 24 24 24 24 24 24 24 24 25 26 27 28 29 29 30 30 31 32 33 34 34 35 34 34 34 35 34 34 33 33 33 34 33 34 35 36 36 37 38 38 39 39 40 41 41 42 43 44 44 45 47 48 49 49 50 51 51 52 52
10 8 8 6 3 6 10 12 14 17 18 19 20 22 24 26 25 24 23 22 21 21 23 24 24 23 23 23 24 25 26 26 26 26 26 26 26 27 28 29 30 31 31 32 32 33 34 35 36 36 36 36 36 35 35 33 32 32 32 33 33 33 34 35 35 36 36 37 37 37 37 36 36 37 38 40 41 43 44 45 46 48 49 50 51 52 52
10 7 6 5 3 4 6 8 10 13 15 17 19 21 23 23 23 24 26 25 23 22 24 25 25 23 22 23 24 25 26 26 26 26 27 28 29 30 31 31 32 33 34 34 35 35 36 36 37 38 38 37 37 37 36 34 33 32 32 32 33 33 34 34 34 35 35 35 36 36 34 33 33 33 34 36 38 39 41 43 45 46 47 47 48 49 50
12 8 6 5 4 4 5 6 8 10 12 14 17 19 20 22 23 24 25 23 22 23 24 25 26 25 24 24 25 26 26 27 27 27 28 28 29 31 32 33 34 35 36 36 37 37 37 38 39 39 39 39 39 39 37 36 35 34 33 32 33 34 34 34 34 34 34 34 35 34 33 32 32 33 33 34 35 35 37 39 41 43 44 45 45 46 47
11 10 8 7 6 6 7 7 8 9 10 12 14 16 19 21 23 23 22 20 20 22 23 25 26 27 28 27 27 27 28 28 28 29 29 30 30 31 32 33 34 35 36 37 38 38 39 39 40 40 40 40 40 40 39 38 37 36 35 33 33 34 34 34 34 34 33 33 33 33 32 32 32 32 33 33 33 33 33 34 36 38 40 42 44 45 46
10 9 9 8 8 7 7 7 6 6 8 10 12 14 16 18 20 20 20 20 21 21 22 23 25 27 28 28 28 28 28 28 29 30 31 31 31 31 32 32 33 34 35 36 37 38 39 39 39 39 40 40 40 40 40 40 39 38 37 36 35 35 35 35 35 34 33 33 32 32 31 31 31 31 32 33 33 33 33 33 33 35 36 38 40 43 45
Wind_Direction
191 184 186 191 196 203 205 205 205 194 184 196 216 220 227 231 229 229 229 225 226 232 234 232 233 236 238 237 235 235 238 240 240 240 237 233 231 230 229 231 233 234 235 236 235 233 232 232 233 234 237 239 239 240 241 237 232 229 229 230 227 225 229 232 225 219 221 222 223 225 223 219 217 219 224 226 226 230 233 234 236 237 239 239 240 241 243
194 187 190 192 196 206 213 212 209 196 189 206 219 218 222 225 224 223 224 225 227 229 233 234 231 234 238 238 236 236 239 240 238 235 233 230 229 227 226 229 231 233 234 236 237 236 233 232 232 234 238 239 238 239 243 244 236 227 224 227 230 228 224 221 215 213 217 221 225 228 228 226 222 221 225 228 227 227 228 229 230 232 235 238 242 245 248
213 208 205 204 207 213 217 218 208 194 194 209 217 216 219 221 221 221 221 224 227 229 234 236 234 235 239 238 237 237 239 240 238 234 230 229 228 226 224 225 228 231 233 235 238 239 237 235 234 236 240 242 240 237 236 237 232 224 221 225 229 225 217 216 219 221 223 226 227 227 229 231 229 226 228 230 230 230 229 229 229 228 229 231 233 239 243
224 225 224 224 224 222 223 223 212 200 200 206 211 218 220 218 219 221 222 225 227 230 234 238 239 239 240 237 235 235 238 239 238 235 231 230 230 228 226 224 225 228 231 234 237 239 240 239 237 237 238 239 238 233 229 231 231 224 219 221 225 224 219 220 225 228 230 232 230 228 230 232 232 231 233 235 235 232 230 230 229 229 230 230 231 234 241
223 226 229 229 226 222 222 220 211 206 208 209 213 219 219 217 219 222 223 224 227 230 234 237 240 241 240 237 235 235 237 238 238 236 232 231 230 229 227 225 224 225 228 232 235 238 241 242 242 241 238 234 233 235 236 240 238 229 220 219 225 228 224 220 222 224 226 228 229 230 229 227 226 230 233 236 237 234 230 229 228 227 227 227 229 231 236
219 221 224 226 224 220 220 218 213 214 217 215 215 218 219 219 221 224 226 225 227 231 234 238 241 243 243 240 237 235 235 235 236 235 233 232 231 230 229 227 225 225 225 228 233 236 239 242 244 245 244 238 237 242 246 247 244 240 238 237 235 233 229 222 218 223 228 228 229 232 231 225 224 226 227 230 234 235 232 230 231 231 229 227 228 229 231
218 219 220 225 225 221 220 220 218 219 221 218 217 221 224 224 225 228 230 229 229 232 236 239 242 244 244 242 239 236 234 234 235 235 235 237 236 234 233 231 230 228 226 227 229 232 235 238 240 244 246 243 243 247 250 250 247 244 243 243 240 238 236 232 225 225 232 233 232 232 230 227 226 227 226 228 231 232 232 234 236 237 235 232 231 232 233
217 218 221 226 228 226 224 223 220 220 221 221 222 225 228 229 230 232 232 232 232 234 235 238 242 244 244 243 241 238 236 236 237 238 239 240 240 240 240 238 235 234 232 230 230 230 233 235 236 239 242 244 245 247 249 249 249 248 247 247 246 244 242 241 239 236 235 234 233 232 229 227 227 228 229 231 231 230 233 236 238 238 237 235 233 234 235
218 219 224 228 231 232 228 224 222 222 223 225 227 229 231 234 235 234 233 232 233 234 235 237 241 244 245 247 246 242 239 238 239 240 241 241 241 241 243 243 241 240 238 236 235 234 235 235 236 237 239 242 244 247 249 249 250 251 253 254 255 253 249 246 246 247 245 242 241 238 234 232 230 228 228 232 234 235 236 238 240 240 238 236 234 235 235
221 223 227 229 231 233 230 227 227 229 230 231 234 235 237 238 238 235 233 232 231 233 235 237 241 243 244 246 247 243 239 237 238 239 241 243 243 243 243 244 243 242 241 240 239 239 238 239 239 239 240 241 243 246 249 250 251 252 255 256 257 256 254 251 249 249 250 250 249 248 245 243 241 237 233 234 236 237 239 240 241 240 239 238 238 238 237
218 221 228 232 233 233 231 229 230 232 234 234 235 236 237 238 238 236 235 234 232 231 233 235 239 242 243 244 244 242 239 236 236 238 241 244 245 245 244 243 243 243 243 242 241 241 240 241 241 242 242 242 243 245 247 250 252 253 254 257 258 258 257 255 253 252 252 252 254 255 253 250 249 248 246 243 242 242 242 242 242 241 240 240 241 242 241
222 222 228 234 237 238 237 235 233 234 235 237 237 237 237 238 238 236 236 236 235 234 234 235 238 242 246 245 243 242 242 240 238 239 241 242 243 244 244 243 243 242 242 241 241 242 241 241 241 242 242 242 242 243 245 247 249 251 253 255 257 259 259 258 256 255 254 254 255 256 256 253 251 251 250 248 247 246 246 245 242 239 239 240 241 244 245
233 232 233 236 239 241 239 239 241 240 239 240 242 241 240 240 239 236 236 238 238 237 237 238 238 239 244 246 244 242 243 242 240 239 241 242 243 243 244 244 243 242 242 241 241 242 242 242 242 242 243 242 242 241 242 243 245 247 250 252 254 256 258 260 259 258 257 256 255 255 256 255 254 253 253 251 250 249 250 250 246 241 239 240 242 245 247
238 239 239 241 243 243 241 242 245 245 243 243 246 246 245 243 242 240 239 240 239 238 237 238 238 236 238 243 245 243 241 240 239 239 239 241 241 242 243 244 244 243 243 242 242 243 243 243 243 244 245 245 244 243 242 242 242 243 246 248 250 253 255 258 260 261 261 260 259 257 257 257 256 256 256 256 256 255 253 253 252 249 246 244 243 245 249
239 239 241 243 246 248 246 244 246 248 247 246 247 246 246 246 246 245 243 242 241 239 239 240 240 239 241 244 246 244 241 238 236 236 237 239 240 241 242 243 244 244 244 244 244 244 244 244 244 245 245 246 247 246 245 245 245 244 245 246 247 249 251 254 256 259 261 262 262 262 261 260 259 258 258 258 258 258 257 256 255 255 253 251 249 248 250
247 243 244 245 248 250 251 250 249 250 250 250 249 248 248 248 247 247 246 246 244 241 241 242 242 242 244 245 244 242 239 236 233 233 235 238 239 240 240 242 243 244 245 245 245 245 245 246 246 246 246 247 248 248 248 248 248 248 248 247 247 248 249 250 252 255 257 260 262 263 263 262 262 261 260 259 258 258 258 258 258 259 259 258 258 257 255
260 256 255 253 251 251 251 251 251 250 250 250 249 248 249 248 246 246 247 248 248 245 243 243 244 243 242 243 243 243 241 239 236 233 235 239 241 241 240 241 243 245 246 247 248 248 248 248 248 248 248 249 249 250 250 250 250 250 250 250 250 249 250 250 251 252 253 256 258 260 262 262 262 262 261 261 260 259 258 258 259 260 261 262 265 265 263
267 266 263 260 257 254 251 249 249 249 249 249 248 247 247 247 246 246 246 248 250 249 246 245 245 245 244 244 244 245 245 245 243 240 238 240 243 243 243 243 244 246 248 248 249 250 249 249 249 249 250 250 251 251 252 252 251 251 251 251 251 251 251 252 252 252 252 253 254 256 258 260 261 262 262 262 262 261 261 261 261 261 261 262 265 266 266
269 268 265 262 260 259 257 254 251 251 251 251 251 250 250 249 248 248 247 248 249 250 249 248 248 248 247 247 247 247 247 248 248 246 244 243 244 245 245 245 245 246 247 248 249 250 250 251 251 251 251 251 252 252 252 253 252 252 252 252 252 252 252 252 253 253 253 254 254 255 256 257 259 260 261 261 261 262 263 263 263 263 263 263 263 264 265
266 267 267 266 263 263 263 261 256 253 252 253 253 252 252 251 250 248 248 248 248 249 249 249 249 249 249 249 249 249 247 247 247 247 246 244 244 245 246 247 247 247 247 247 248 250 251 252 253 253 253 253 254 254 254 254 254 254 253 253 252 252 252 252 253 253 253 254 254 255 255 255 256 257 258 259 260 260 261 261 262 263 263 263 263 263 263
262 262 266 269 269 267 265 263 261 258 255 254 253 254 253 252 250 247 246 246 247 248 249 250 250 250 249 249 249 249 248 247 246 245 245 244 243 244 245 246 246 247 247 248 249 250 251 251 252 253 254 254 254 255 256 256 256 255 255 255 255 254 253 253 253 253 253 253 253 253 254 254 254 255 256 257 258 259 259 259 261 262 262 262 263 263 263
265 263 263 266 269 269 265 262 261 260 258 256 254 253 255 255 254 250 247 246 246 246 247 249 250 250 250 250 250 249 248 247 247 246 245 244 243 242 242 243 244 246 247 249 249 250 250 251 252 253 253 254 254 255 255 256 256 257 257 257 257 257 256 255 255 254 254 254 253 253 253 253 254 254 255 255 256 256 257 258 259 260 261 261 262 262 262
269 267 264 263 264 266 264 261 260 260 260 259 257 256 255 255 256 254 251 249 247 246 246 247 249 250 250 250 250 250 249 248 248 248 247 245 244 243 242 242 243 245 246 247 248 249 250 250 251 252 253 254 254 255 255 256 256 257 257 258 258 258 258 258 257 257 256 256 256 255 255 254 254 254 255 255 255 255 255 256 257 258 259 260 260 261 261
267 266 266 265 263 262 261 261 261 262 262 261 259 258 255 255 256 256 255 252 250 248 247 247 248 249 250 250 250 251 250 250 250 249 249 248 247 245 244 243 243 244 245 246 247 247 248 249 250 251 252 253 253 254 255 255 256 256 257 257 258 258 259 259 259 259 258 258 258 258 258 257 257 256 256 256 256 256 255 254 254 255 256 258 258 259 260
268 268 268 266 262 260 261 263 264 264 263 261 260 260 258 257 256 256 255 254 253 250 249 248 248 248 248 249 250 251 251 251 250 250 250 249 249 248 247 246 245 245 245 246 247 247 248 249 249 250 251 252 253 253 254 255 255 256 256 257 257 258 258 259 259 259 259 259 259 259 259 259 259 259 258 257 257 257 256 256 254 253 254 255 256 258 259
270 269 268 266 263 261 261 262 263 263 261 259 258 259 259 259 258 257 257 256 255 252 251 250 249 249 248 248 249 250 250 249 249 250 250 250 250 250 250 249 248 247 247 247 248 249 249 250 250 251 252 253 253 254 255 255 256 256 257 257 257 258 258 259 259 260 260 260 260 260 260 260 260 260 260 259 259 258 258 258 257 256 254 254 254 255 256
270 269 267 266 265 264 263 261 261 261 260 258 257 256 257 257 256 256 257 257 257 256 253 251 251 250 249 247 246 247 248 249 249 249 249 250 251 251 251 250 249 249 249 249 250 250 251 251 252 252 253 254 254 255 256 257 257 257 258 258 258 258 258 259 259 260 260 261 261 261 261 261 261 261 261 261 261 261 261 260 259 259 258 256 255 254 254
271 269 267 265 265 265 265 264 261 259 258 258 258 257 255 254 253 253 254 255 257 257 255 253 252 251 249 248 247 246 246 247 249 249 250 251 251 251 250 250 250 250 250 250 250 251 251 252 253 253 254 255 255 256 257 257 258 259 259 259 259 259 259 259 259 260 260 261 261 261 261 261 261 261 262 262 262 262 262 262 261 261 260 259 258 257 256
269 268 267 266 265 265 265 264 262 260 258 258 258 258 256 254 253 252 253 254 255 256 256 256 254 252 250 249 249 247 245 245 247 248 250 251 250 249 250 250 250 251 251 251 251 251 252 252 252 253 254 254 255 256 257 257 258 259 260 261 261 261 261 261 261 261 261 261 261 261 262 262 262 262 262 262 262 261 261 261 261 261 260 260 260 260 259
268 267 267 267 267 266 264 263 262 260 258 256 256 257 256 254 252 251 251 252 252 253 254 255 254 253 252 251 249 248 247 245 245 245 246 247 248 249 249 250 250 251 251 251 251 251 252 252 252 253 253 254 254 255 255 256 257 257 258 259 260 261 262 262 263 263 263 263 263 263 263 263 263 262 262 262 262 262 262 262 261 261 260 260 260 260 260
270 269 270 271 270 269 267 264 261 260 258 257 255 256 256 254 251 249 249 249 249 249 250 251 252 253 254 252 250 248 247 245 243 242 242 244 246 247 248 249 250 250 250 251 251 251 252 253 253 254 254 255 255 255 255 255 255 255 256 257 258 260 261 262 262 263 264 264 264 264 264 264 264 264 263 263 263 263 263 263 263 262 262 261 261 260 259
277 275 273 273 272 271 269 266 262 259 257 256 255 254 254 253 250 248 246 246 246 248 249 249 249 250 252 253 251 249 247 245 244 243 242 242 244 246 247 248 248 249 250 251 252 253 253 254 255 255 256 257 257 258 258 257 257 257 257 258 258 259 260 260 261 261 262 262 263 263 264 264 264 264 264 264 264 264 264 264 264 263 263 262 262 261 261
282 278 276 273 271 270 268 266 263 260 257 255 254 252 251 251 249 247 245 244 244 246 247 248 248 250 251 252 252 251 248 247 246 246 246 245 245 245 246 246 247 249 250 251 252 254 255 255 256 257 258 259 260 261 261 261 261 261 261 261 261 261 261 261 262 262 262 262 263 263 263 263 264 264 264 264 264 264 264 264 264 264 264 263 263 262 262
280 278 277 275 272 270 267 265 263 260 257 255 253 252 251 249 248 246 245 244 243 244 245 246 247 248 249 249 249 249 249 249 249 249 248 248 247 247 247 248 248 249 250 251 252 253 254 255 257 258 260 261 262 263 264 264 264 264 264 264 264 264 264 264 264 264 264 264 264 264 264 264 264 264 264 264 264 264 264 264 264 265 265 264 264 263 262
282 280 277 274 271 269 266 263 261 258 255 253 252 251 250 250 248 246 246 245 244 243 243 242 243 244 246 246 247 248 249 249 250 249 248 247 247 248 249 250 250 250 251 252 252 253 254 255 256 258 260 261 263 264 265 265 265 266 266 266 266 266 266 266 266 266 266 266 266 266 266 266 266 266 266 266 265 265 265 265 265 265 265 264 264 264 263
285 283 278 273 269 266 264 262 259 257 255 252 250 249 249 249 248 246 244 244 244 244 243 241 241 243 245 246 247 249 250 250 250 250 250 248 248 248 249 250 251 252 252 253 253 254 254 255 256 257 258 260 262 264 265 266 266 267 267 268 268 268 268 269 269 269 268 268 268 268 268 268 268 268 268 268 267 267 266 266 266 266 265 265 265 264 264
289 285 280 276 272 269 266 262 259 257 255 253 251 248 247 247 247 246 243 242 243 245 244 242 239 240 244 245 245 246 247 248 249 251 252 252 251 250 249 250 252 253 254 254 255 255 256 257 258 258 258 259 261 263 265 266 267 268 269 269 270 270 271 271 271 271 271 271 271 271 271 271 270 270 270 269 269 269 268 268 268 267 267 267 266 265 264
291 287 283 279 276 272 267 262 258 256 255 254 252 250 246 244 245 245 243 242 242 245 247 246 241 239 242 246 245 243 243 246 250 253 253 254 255 254 253 252 253 254 255 256 256 257 257 257 258 259 259 260 261 263 265 267 268 270 270 271 272 272 272 272 272 272 272 272 272 272 272 272 272 271 271 271 271 270 270 269 269 269 268 268 267 266 266
291 287 282 277 274 271 267 262 257 254 253 254 253 251 248 244 243 243 243 243 243 244 246 247 245 241 243 247 250 249 249 252 255 255 253 252 253 255 255 255 255 255 255 256 256 256 255 255 256 258 259 261 262 264 266 268 269 271 271 272 273 273 273 273 273 273 272 272 272 272 272 272 272 272 272 272 272 271 271 271 270 270 270 269 268 267 267
291 285 279 274 270 268 266 262 255 249 247 250 251 249 246 243 241 240 241 243 245 246 245 245 245 243 243 245 248 250 250 251 253 253 252 251 252 253 254 255 256 255 254 253 253 253 253 254 256 257 259 261 263 265 268 270 271 272 273 274 275 275 275 275 275 275 274 274 274 273 273 272 272 272 272 271 271 271 271 271 270 270 269 268 268 268 267
291 285 278 272 268 265 264 262 255 245 240 241 244 245 243 241 239 238 238 241 245 247 245 243 241 241 241 242 244 246 246 247 247 248 248 249 249 250 251 252 253 251 250 249 249 250 251 253 254 255 258 261 264 268 271 273 275 275 275 276 277 277 278 278 277 276 276 275 274 273 272 271 271 270 270 270 269 269 268 268 267 267 267 267 267 266 266
291 285 279 273 267 262 259 257 252 244 239 239 241 241 240 237 234 231 230 233 237 241 240 238 237 238 240 241 243 245 246 245 244 244 244 244 245 245 246 247 247 247 247 247 248 249 251 252 254 257 260 264 268 272 276 279 281 281 280 280 280 281 280 279 277 276 274 273 272 271 270 269 268 268 267 267 267 267 267 266 266 267 267 267 267 266 265
293 288 283 278 271 262 255 250 244 238 236 238 239 238 236 234 232 229 228 229 233 236 238 238 238 239 239 239 241 243 244 244 243 242 242 242 243 243 243 243 245 246 246 247 248 249 251 254 257 260 264 267 271 276 282 286 288 287 286 285 285 283 281 278 276 274 272 271 270 269 268 267 266 265 265 265 266 266 267 267 268 268 268 269 269 269 268
299 294 290 285 275 262 251 241 231 225 226 231 233 233 231 229 229 229 230 230 233 238 242 245 245 243 240 239 239 241 242 242 242 241 241 241 242 243 243 243 245 246 247 248 250 252 254 257 260 263 267 271 275 281 287 291 292 290 289 287 286 283 279 276 274 273 272 271 270 270 269 269 268 267 267 267 268 268 268 268 269 269 270 270 271 271 270
308 303 296 287 273 255 234 219 212 211 214 217 221 224 224 222 223 228 232 234 237 241 245 248 250 249 245 242 241 242 243 243 242 242 242 242 244 245 246 246 247 248 249 251 253 255 257 260 263 266 269 272 277 282 288 292 294 293 291 288 285 281 277 276 275 275 274 273 274 274 275 275 274 273 272 271 270 270 269 269 269 269 270 270 270 271 271
324 325 314 294 270 234 205 197 199 206 209 208 209 214 218 218 220 228 235 238 240 243 246 248 251 252 252 249 246 245 245 247 246 246 245 245 246 248 248 247 248 250 252 253 255 257 259 262 264 267 269 272 276 280 286 291 296 298 297 293 287 281 277 276 276 276 276 276 277 278 279 279 279 279 277 275 274 272 271 271 270 270 270 270 270 270 270
347 359 2 354 283 179 178 184 193 202 205 202 203 209 214 216 220 229 235 236 237 240 243 245 248 249 251 252 251 250 249 250 250 249 249 249 250 251 251 250 250 251 253 255 257 259 260 262 264 267 269 272 275 279 283 289 295 300 302 300 295 287 280 277 276 276 277 277 278 280 280 281 281 281 281 279 277 276 274 273 272 272 271 271 270 269 269
353 357 7 24 80 152 173 186 195 199 199 196 197 204 210 212 217 227 234 235 235 235 237 240 244 247 249 251 253 252 252 252 253 253 253 253 253 255 255 254 254 254 255 257 259 261 263 264 266 267 269 271 274 277 280 286 292 299 304 304 300 294 286 280 278 278 279 280 281 282 282 282 282 283 283 283 281 279 277 275 274 273 272 272 271 270 269
5 355 359 20 66 150 173 182 190 195 194 191 193 200 206 209 216 228 236 239 239 238 238 240 244 248 250 251 252 251 251 251 252 253 254 255 256 257 258 258 257 257 258 259 260 262 264 266 267 268 269 270 272 274 277 281 288 295 302 304 303 298 291 284 280 280 282 284 285 285 284 284 284 286 288 287 286 283 280 278 276 275 274 273 272 271 270
25 26 35 53 79 116 137 148 165 181 191 196 198 201 205 209 216 226 233 237 238 238 239 240 243 246 249 251 252 253 255 256 258 258 258 258 258 259 260 261 260 260 261 261 262 263 265 267 268 268 269 270 271 273 275 278 282 289 296 303 305 303 297 289 283 282 284 286 287 287 287 286 288 291 293 293 291 287 284 281 279 277 276 275 273 272 271
30 35 47 70 96 119 130 136 145 162 181 195 201 202 207 213 220 227 234 239 240 241 242 242 244 246 250 253 256 258 260 262 264 264 264 262 261 261 262 263 263 263 264 264 265 265 265 266 267 267 268 269 270 271 273 275 278 283 290 298 304 306 302 294 287 285 286 288 289 288 289 290 293 297 300 300 299 295 291 286 282 279 277 276 275 275 274
32 39 51 69 90 114 130 132 130 145 168 183 190 198 208 217 224 230 236 241 243 243 244 245 246 248 250 252 256 259 262 264 265 266 266 264 263 262 263 265 266 266 266 267 267 268 267 267 267 267 268 269 269 270 271 273 276 280 284 291 298 304 304 298 291 288 289 290 290 289 291 293 297 302 306 308 309 307 304 300 295 290 285 280 277 276 275
Height
5798 5800 5802 5804 5806 5806 5808 5811 5815 5820 5825 5827 5827 5827 5826 5827 5830 5833 5835 5838 5838 5838 5839 5842 5846 5849 5852 5855 5858 5860 5862 5864 5867 5869 5871 5873 5875 5877 5880 5882 5884 5886 5887 5889 5890 5892 5895 5897 5898 5900 5901 5902 5904 5905 5906 5908 5910 5911 5912 5915 5917 5918 5919 5921 5922 5924 5926 5927 5929 5930 5932 5933 5935 5937 5940 5943 5945 5947 5948 5950 5951 5952 5953 5954 5956 5957 5959
5793 5796 5798 5800 5803 5805 5808 5810 5814 5820 5823 5820 5818 5819 5821 5823 5826 5829 5833 5835 5836 5836 5837 5839 5843 5847 5850 5853 5855 5857 5859 5861 5863 5866 5868 5870 5872 5875 5877 5879 5881 5883 5885 5886 5888 5890 5892 5894 5895 5897 5898 5899 5901 5902 5903 5904 5906 5907 5909 5911 5914 5916 5918 5919 5920 5921 5922 5924 5926 5928 5930 5931 5932 5935 5937 5940 5942 5944 5945 5946 5948 5949 5951 5952 5954 5955 5957
5793 5794 5796 5798 5801 5803 5806 5809 5812 5814 5814 5812 5814 5816 5818 5820 5823 5827 5831 5832 5834 5836 5836 5837 5841 5845 5848 5851 5853 5855 5856 5857 5860 5863 5865 5867 5869 5871 5874 5876 5878 5880 5882 5883 5885 5887 5890 5892 5893 5895 5896 5897 5898 5899 5899 5901 5904 5906 5907 5909 5911 5913 5915 5916 5917 5918 5920 5922 5924 5926 5928 5930 5932 5933 5936 5938 5940 5941 5943 5944 5945 5947 5948 5950 5951 5952 5953
5792 5794 5796 5798 5800 5802 5805 5807 5808 5808 5808 5811 5814 5814 5815 5819 5822 5824 5827 5829 5832 5835 5835 5835 5839 5843 5845 5848 5851 5853 5854 5855 5856 5859 5861 5864 5866 5868 5871 5873 5875 5877 5878 5880 5882 5884 5886 5888 5890 5892 5893 5895 5896 5896 5896 5899 5902 5904 5906 5907 5909 5911 5912 5913 5914 5916 5918 5920 5921 5924 5926 5928 5930 5932 5935 5937 5938 5939 5940 5941 5942 5944 5946 5947 5949 5950 5950
5789 5791 5793 5795 5796 5800 5803 5803 5803 5804 5807 5810 5811 5810 5813 5817 5819 5820 5823 5827 5829 5831 5832 5833 5836 5839 5842 5845 5848 5851 5852 5852 5854 5856 5858 5861 5863 5865 5867 5870 5872 5874 5875 5876 5878 5880 5882 5885 5887 5888 5890 5893 5894 5893 5894 5896 5899 5902 5904 5906 5907 5908 5909 5910 5911 5913 5915 5917 5918 5921 5923 5924 5926 5928 5932 5934 5935 5935 5936 5937 5938 5940 5941 5943 5945 5947 5948
5786 5787 5789 5790 5793 5797 5797 5798 5801 5803 5806 5808 5807 5807 5811 5814 5816 5818 5821 5824 5826 5828 5829 5830 5832 5835 5838 5841 5844 5847 5848 5849 5851 5853 5855 5857 5859 5861 5863 5866 5868 5871 5872 5873 5875 5877 5879 5881 5883 5884 5887 5890 5892 5891 5891 5892 5896 5899 5902 5904 5905 5905 5906 5908 5909 5910 5912 5914 5916 5918 5920 5921 5923 5924 5927 5930 5931 5932 5933 5935 5936 5937 5938 5939 5940 5942 5944
5783 5784 5786 5786 5789 5792 5793 5797 5801 5802 5803 5804 5804 5806 5811 5812 5814 5816 5819 5821 5824 5825 5826 5827 5829 5832 5834 5837 5840 5843 5845 5846 5848 5849 5851 5853 5855 5857 5859 5862 5864 5867 5869 5871 5872 5874 5876 5878 5880 5881 5883 5886 5888 5889 5889 5890 5892 5895 5898 5900 5902 5903 5904 5906 5907 5908 5909 5911 5913 5915 5916 5918 5920 5921 5923 5925 5927 5929 5931 5932 5933 5934 5935 5936 5937 5938 5939
5780 5782 5783 5784 5785 5788 5791 5795 5798 5798 5799 5801 5801 5804 5809 5810 5811 5813 5815 5817 5819 5821 5823 5824 5825 5827 5829 5831 5836 5839 5841 5842 5844 5846 5848 5849 5851 5853 5855 5857 5860 5862 5865 5867 5869 5871 5872 5874 5876 5878 5880 5883 5885 5886 5887 5888 5888 5889 5892 5896 5898 5900 5902 5904 5906 5907 5908 5909 5910 5912 5913 5915 5917 5919 5920 5922 5924 5925 5927 5929 5930 5931 5932 5932 5933 5934 5935
5778 5780 5780 5781 5783 5785 5788 5790 5792 5793 5795 5797 5799 5802 5805 5806 5808 5810 5811 5812 5814 5816 5818 5819 5820 5823 5825 5827 5830 5834 5836 5838 5840 5842 5843 5845 5848 5850 5851 5853 5855 5857 5860 5862 5864 5867 5869 5870 5873 5875 5877 5879 5881 5882 5884 5885 5886 5886 5887 5890 5893 5896 5899 5902 5903 5904 5906 5907 5908 5909 5911 5913 5914 5916 5917 5919 5920 5921 5923 5924 5926 5927 5927 5928 5929 5930 5931
5776 5777 5778 5779 5780 5781 5783 5785 5788 5789 5791 5794 5796 5798 5799 5801 5804 5807 5807 5807 5808 5811 5813 5814 5815 5817 5820 5822 5825 5828 5831 5834 5836 5838 5839 5842 5845 5847 5847 5849 5851 5853 5855 5858 5859 5861 5864 5866 5868 5870 5873 5875 5877 5879 5880 5881 5883 5883 5884 5885 5888 5891 5894 5897 5900 5901 5903 5904 5905 5906 5908 5910 5911 5912 5914 5915 5916 5917 5918 5920 5921 5922 5923 5924 5925 5926 5927
5774 5774 5775 5775 5776 5777 5780 5783 5784 5785 5787 5790 5791 5792 5794 5796 5799 5802 5803 5803 5804 5806 5807 5808 5810 5812 5815 5816 5819 5823 5827 5829 5832 5835 5836 5839 5842 5843 5843 5845 5848 5850 5851 5853 5854 5856 5858 5861 5863 5865 5867 5869 5872 5874 5876 5877 5879 5880 5881 5882 5883 5886 5889 5892 5895 5897 5899 5900 5901 5902 5904 5906 5907 5908 5909 5911 5913 5914 5914 5915 5916 5917 5919 5920 5921 5922 5922
5771 5772 5772 5772 5774 5776 5778 5779 5781 5782 5783 5785 5786 5787 5789 5792 5795 5797 5798 5798 5800 5802 5803 5804 5806 5808 5810 5810 5814 5819 5824 5827 5830 5832 5832 5835 5838 5837 5837 5840 5844 5845 5847 5849 5850 5850 5853 5856 5858 5860 5862 5864 5867 5869 5871 5873 5875 5877 5878 5879 5880 5882 5884 5886 5889 5892 5895 5897 5898 5899 5901 5903 5904 5905 5906 5908 5909 5911 5911 5912 5912 5913 5914 5915 5916 5917 5918
5769 5770 5770 5770 5771 5773 5775 5776 5778 5778 5780 5781 5782 5783 5786 5788 5789 5791 5793 5794 5795 5797 5799 5800 5802 5804 5805 5805 5808 5816 5821 5823 5826 5828 5828 5830 5831 5831 5832 5836 5839 5840 5841 5843 5844 5846 5849 5851 5853 5855 5857 5859 5862 5865 5867 5869 5871 5873 5874 5876 5877 5879 5880 5881 5884 5887 5890 5892 5895 5896 5897 5899 5901 5902 5904 5905 5906 5907 5908 5908 5909 5910 5910 5911 5912 5913 5914
5767 5767 5767 5768 5769 5770 5772 5773 5773 5774 5777 5778 5778 5780 5782 5783 5784 5786 5789 5789 5790 5792 5794 5795 5796 5799 5801 5802 5805 5812 5816 5818 5820 5822 5823 5823 5824 5825 5828 5831 5833 5833 5835 5837 5839 5841 5844 5847 5848 5850 5851 5853 5856 5859 5862 5864 5866 5868 5870 5872 5874 5875 5876 5878 5879 5881 5883 5886 5889 5891 5893 5895 5897 5899 5900 5901 5902 5903 5904 5905 5906 5907 5907 5908 5909 5909 5910
5764 5764 5765 5765 5766 5766 5768 5769 5770 5771 5773 5774 5774 5776 5777 5778 5780 5782 5783 5782 5784 5787 5789 5790 5793 5796 5798 5799 5802 5805 5808 5811 5814 5816 5816 5816 5817 5820 5824 5826 5826 5827 5829 5831 5834 5837 5840 5842 5843 5845 5846 5847 5849 5853 5855 5858 5860 5862 5865 5868 5870 5871 5873 5874 5875 5876 5878 5880 5882 5885 5887 5889 5891 5893 5895 5896 5897 5899 5900 5902 5902 5903 5904 5905 5906 5906 5907
5761 5761 5761 5763 5763 5763 5764 5765 5767 5768 5769 5769 5770 5772 5773 5774 5776 5777 5776 5776 5779 5782 5785 5787 5790 5792 5793 5794 5795 5798 5801 5805 5808 5810 5810 5810 5811 5815 5819 5820 5819 5820 5823 5826 5828 5832 5834 5836 5837 5839 5841 5842 5844 5847 5849 5851 5853 5856 5859 5861 5864 5866 5868 5869 5871 5872 5873 5875 5876 5878 5880 5882 5885 5887 5889 5891 5892 5894 5896 5897 5898 5899 5900 5901 5902 5903 5904
5757 5758 5758 5759 5760 5760 5761 5762 5763 5763 5764 5764 5766 5768 5768 5769 5771 5771 5772 5772 5774 5777 5780 5783 5783 5784 5786 5788 5790 5793 5796 5799 5802 5805 5805 5805 5806 5810 5813 5814 5813 5816 5819 5820 5823 5826 5828 5829 5831 5833 5835 5837 5839 5841 5842 5844 5847 5850 5852 5854 5856 5859 5861 5863 5865 5867 5869 5870 5871 5872 5874 5876 5878 5880 5882 5884 5886 5888 5890 5892 5893 5894 5895 5896 5897 5898 5899
5754 5754 5755 5755 5755 5755 5756 5757 5758 5758 5759 5759 5761 5762 5763 5764 5766 5767 5769 5769 5769 5771 5774 5775 5775 5777 5781 5784 5786 5789 5791 5793 5795 5798 5800 5801 5802 5804 5807 5808 5809 5811 5813 5815 5817 5819 5821 5823 5825 5827 5829 5831 5833 5835 5836 5838 5842 5844 5846 5847 5850 5852 5854 5856 5858 5860 5862 5864 5866 5867 5868 5870 5871 5873 5875 5877 5880 5882 5884 5886 5888 5889 5890 5891 5892 5893 5894
5751 5750 5750 5751 5751 5751 5751 5753 5754 5755 5755 5755 5757 5758 5759 5760 5761 5763 5765 5765 5765 5766 5768 5769 5770 5773 5776 5778 5780 5783 5785 5787 5788 5791 5794 5796 5797 5798 5800 5802 5804 5806 5807 5809 5810 5812 5814 5816 5818 5821 5823 5825 5827 5829 5830 5832 5835 5837 5839 5841 5843 5845 5847 5849 5851 5853 5855 5857 5859 5861 5863 5865 5866 5867 5869 5871 5873 5876 5878 5879 5881 5882 5884 5885 5886 5887 5888
5748 5747 5746 5746 5747 5747 5747 5748 5749 5750 5751 5751 5752 5753 5754 5755 5757 5759 5760 5761 5761 5761 5762 5763 5765 5767 5770 5772 5774 5776 5779 5781 5782 5784 5787 5789 5791 5792 5794 5796 5797 5799 5800 5802 5804 5806 5808 5810 5812 5814 5816 5818 5820 5822 5824 5826 5828 5830 5832 5834 5836 5838 5840 5842 5844 5846 5848 5851 5853 5854 5856 5858 5860 5861 5862 5864 5867 5869 5871 5872 5873 5875 5876 5878 5879 5880 5882
5744 5743 5742 5742 5742 5742 5742 5742 5743 5744 5746 5747 5748 5748 5748 5749 5752 5754 5755 5755 5755 5755 5756 5758 5759 5761 5764 5766 5768 5770 5772 5774 5775 5778 5780 5783 5784 5786 5788 5789 5790 5791 5793 5796 5798 5800 5802 5804 5805 5807 5809 5811 5813 5815 5817 5819 5821 5823 5825 5827 5829 5831 5833 5835 5837 5839 5841 5843 5845 5847 5849 5851 5852 5854 5856 5858 5859 5861 5863 5865 5866 5867 5868 5870 5871 5873 5876
5738 5739 5739 5738 5737 5736 5737 5737 5737 5738 5739 5741 5743 5743 5743 5744 5746 5748 5749 5750 5750 5750 5751 5753 5753 5755 5757 5760 5761 5763 5764 5766 5769 5772 5774 5776 5778 5780 5782 5783 5783 5785 5787 5790 5792 5793 5795 5796 5798 5800 5802 5804 5806 5808 5810 5812 5813 5816 5818 5820 5822 5824 5825 5827 5829 5831 5833 5835 5836 5839 5841 5843 5844 5846 5848 5850 5852 5854 5856 5858 5859 5860 5861 5862 5864 5865 5868
5732 5732 5732 5732 5732 5731 5731 5732 5732 5732 5732 5734 5736 5737 5738 5738 5739 5740 5742 5743 5744 5745 5747 5748 5748 5749 5752 5754 5754 5755 5758 5760 5763 5764 5766 5769 5771 5773 5775 5776 5778 5780 5782 5784 5785 5787 5788 5789 5791 5793 5795 5797 5798 5800 5802 5804 5806 5808 5811 5813 5814 5815 5817 5819 5821 5823 5825 5827 5828 5830 5832 5834 5836 5839 5840 5842 5844 5846 5848 5850 5852 5853 5854 5855 5856 5857 5859
5726 5726 5726 5726 5726 5726 5726 5726 5727 5727 5727 5727 5728 5730 5732 5732 5733 5733 5735 5737 5738 5740 5741 5743 5743 5744 5745 5747 5748 5749 5751 5754 5756 5757 5759 5762 5763 5765 5767 5770 5773 5775 5776 5778 5779 5780 5781 5783 5785 5787 5788 5789 5791 5793 5795 5797 5799 5801 5803 5805 5806 5808 5809 5811 5813 5815 5817 5819 5820 5822 5823 5825 5828 5830 5832 5834 5835 5837 5839 5842 5844 5846 5847 5847 5848 5850 5851
5720 5720 5720 5720 5721 5721 5721 5721 5721 5722 5722 5722 5722 5723 5724 5725 5726 5727 5729 5730 5732 5734 5735 5737 5738 5739 5740 5741 5742 5743 5745 5747 5748 5750 5752 5754 5755 5757 5761 5764 5766 5768 5770 5770 5771 5773 5775 5777 5779 5780 5781 5782 5784 5786 5788 5790 5792 5794 5795 5797 5798 5800 5802 5803 5805 5807 5809 5810 5812 5813 5815 5817 5819 5820 5823 5825 5826 5827 5829 5831 5835 5837 5839 5840 5841 5842 5844
5714 5713 5713 5713 5714 5715 5715 5715 5715 5715 5715 5716 5717 5718 5718 5718 5719 5721 5722 5723 5725 5727 5729 5731 5732 5733 5735 5736 5737 5737 5738 5740 5741 5744 5745 5746 5748 5751 5754 5756 5758 5760 5762 5763 5764 5766 5768 5770 5771 5773 5774 5775 5777 5779 5780 5782 5784 5786 5788 5789 5791 5792 5794 5795 5797 5799 5800 5802 5804 5805 5807 5808 5810 5811 5813 5815 5817 5819 5820 5822 5825 5827 5830 5832 5833 5834 5836
5708 5707 5707 5706 5706 5707 5708 5708 5709 5709 5709 5709 5711 5712 5713 5713 5713 5715 5716 5716 5717 5720 5722 5724 5726 5727 5729 5730 5731 5731 5732 5733 5736 5738 5739 5740 5742 5745 5747 5748 5750 5752 5754 5756 5757 5759 5761 5763 5764 5765 5767 5768 5770 5771 5773 5775 5777 5778 5779 5781 5783 5784 5786 5788 5789 5791 5792 5794 5795 5797 5799 5800 5801 5803 5804 5806 5808 5810 5812 5814 5816 5818 5820 5822 5823 5825 5828
5701 5700 5700 5700 5699 5699 5700 5701 5701 5702 5702 5702 5703 5705 5706 5707 5707 5709 5710 5711 5711 5712 5714 5717 5719 5721 5723 5724 5724 5725 5727 5728 5730 5733 5734 5735 5737 5738 5739 5740 5742 5745 5746 5748 5750 5752 5754 5755 5757 5758 5759 5761 5762 5764 5766 5767 5769 5770 5771 5773 5774 5776 5777 5779 5781 5783 5784 5786 5787 5788 5790 5792 5793 5794 5796 5797 5799 5801 5802 5804 5806 5808 5810 5812 5813 5815 5817
5694 5694 5694 5694 5694 5694 5694 5694 5694 5695 5695 5696 5697 5698 5699 5700 5701 5703 5704 5705 5705 5706 5708 5709 5711 5714 5716 5717 5718 5720 5722 5724 5726 5728 5729 5729 5730 5731 5732 5734 5736 5738 5740 5741 5743 5744 5746 5748 5749 5751 5752 5754 5756 5757 5759 5760 5761 5762 5763 5764 5765 5767 5768 5770 5772 5774 5775 5777 5778 5780 5781 5782 5784 5785 5786 5788 5789 5791 5793 5795 5797 5799 5801 5802 5804 5805 5807
5688 5688 5688 5687 5687 5687 5688 5688 5688 5688 5689 5690 5691 5692 5693 5694 5695 5697 5698 5699 5700 5701 5702 5703 5705 5707 5709 5710 5712 5714 5717 5719 5721 5722 5722 5722 5723 5725 5727 5729 5731 5732 5733 5735 5736 5738 5739 5740 5742 5743 5745 5747 5749 5750 5751 5752 5754 5754 5755 5755 5756 5758 5760 5761 5763 5764 5766 5768 5769 5770 5771 5773 5774 5775 5777 5778 5779 5781 5783 5785 5787 5789 5791 5793 5795 5797 5798
5682 5682 5681 5681 5680 5680 5681 5681 5682 5682 5683 5684 5685 5686 5687 5688 5689 5690 5691 5692 5694 5695 5696 5697 5699 5701 5702 5703 5706 5708 5711 5713 5714 5715 5715 5716 5718 5720 5723 5724 5725 5726 5727 5728 5730 5731 5732 5734 5735 5737 5738 5740 5741 5742 5743 5744 5745 5746 5747 5748 5750 5751 5752 5754 5755 5756 5757 5758 5759 5760 5761 5763 5764 5765 5766 5768 5769 5770 5772 5774 5776 5778 5780 5782 5784 5787 5789
5676 5675 5675 5674 5674 5674 5674 5674 5675 5676 5676 5677 5678 5679 5680 5681 5682 5683 5685 5686 5687 5689 5689 5691 5693 5695 5695 5696 5699 5702 5704 5706 5707 5708 5709 5711 5713 5715 5717 5718 5719 5721 5722 5723 5724 5725 5727 5728 5729 5730 5731 5733 5734 5734 5735 5736 5737 5739 5740 5741 5743 5744 5745 5746 5747 5748 5749 5749 5750 5751 5752 5753 5754 5755 5756 5757 5759 5760 5761 5763 5765 5767 5769 5771 5774 5776 5777
5670 5669 5669 5668 5668 5668 5667 5668 5669 5670 5670 5671 5671 5672 5673 5674 5675 5676 5678 5679 5681 5683 5684 5685 5687 5688 5689 5690 5693 5695 5697 5699 5700 5702 5704 5706 5708 5709 5711 5712 5713 5716 5717 5718 5719 5721 5722 5723 5723 5724 5726 5727 5727 5728 5728 5729 5730 5731 5732 5733 5735 5736 5737 5738 5739 5739 5740 5741 5741 5742 5743 5743 5744 5745 5746 5747 5748 5749 5751 5752 5754 5755 5757 5760 5762 5764 5765
5664 5663 5663 5663 5662 5662 5661 5661 5662 5663 5664 5664 5665 5665 5666 5668 5669 5670 5671 5673 5675 5677 5679 5680 5681 5682 5683 5685 5686 5688 5690 5693 5695 5696 5698 5700 5701 5703 5704 5706 5708 5710 5711 5712 5714 5715 5716 5717 5717 5719 5720 5721 5721 5721 5722 5723 5724 5724 5725 5726 5727 5728 5729 5730 5731 5731 5732 5732 5732 5733 5734 5734 5734 5735 5736 5737 5738 5738 5740 5741 5742 5744 5745 5748 5750 5752 5753
5657 5657 5656 5656 5656 5656 5655 5655 5655 5656 5657 5658 5659 5659 5661 5662 5663 5664 5666 5667 5669 5671 5672 5673 5674 5676 5677 5678 5679 5681 5684 5687 5689 5690 5691 5693 5694 5696 5698 5700 5701 5703 5704 5706 5708 5709 5709 5710 5712 5713 5713 5714 5715 5715 5716 5716 5717 5718 5718 5719 5720 5720 5721 5721 5722 5723 5723 5723 5724 5724 5724 5724 5725 5725 5726 5726 5727 5728 5729 5730 5731 5732 5733 5735 5737 5739 5741
5650 5650 5650 5650 5650 5649 5649 5649 5649 5649 5650 5652 5653 5654 5655 5656 5657 5658 5660 5662 5663 5664 5665 5666 5668 5670 5672 5673 5674 5675 5677 5680 5682 5683 5685 5686 5687 5689 5691 5693 5695 5696 5697 5699 5700 5701 5702 5704 5705 5706 5707 5708 5708 5708 5708 5709 5710 5710 5711 5711 5712 5712 5713 5713 5713 5714 5714 5714 5714 5715 5714 5715 5716 5716 5716 5716 5716 5717 5718 5719 5720 5720 5721 5723 5725 5727 5728
5643 5643 5643 5643 5643 5643 5643 5643 5643 5643 5644 5645 5647 5648 5650 5651 5652 5653 5655 5656 5658 5658 5659 5660 5663 5665 5667 5668 5668 5668 5670 5673 5675 5676 5678 5679 5681 5682 5684 5686 5688 5689 5690 5691 5692 5694 5695 5696 5697 5699 5700 5701 5701 5701 5701 5702 5702 5703 5703 5704 5704 5704 5705 5705 5705 5705 5705 5705 5705 5705 5705 5705 5705 5706 5706 5705 5705 5706 5706 5707 5708 5709 5709 5710 5712 5713 5715
5636 5636 5635 5635 5636 5636 5636 5636 5636 5637 5638 5639 5640 5642 5643 5645 5646 5648 5649 5651 5652 5653 5654 5655 5657 5659 5660 5660 5661 5663 5665 5667 5669 5671 5672 5673 5675 5676 5678 5680 5681 5682 5683 5684 5685 5687 5688 5689 5691 5692 5693 5693 5694 5694 5694 5694 5694 5695 5695 5695 5696 5696 5696 5696 5696 5696 5696 5696 5695 5695 5695 5694 5694 5695 5695 5695 5694 5694 5695 5696 5696 5696 5696 5697 5698 5699 5700
5629 5628 5627 5627 5627 5627 5628 5628 5630 5631 5632 5634 5635 5636 5637 5639 5641 5643 5645 5646 5647 5648 5649 5650 5651 5653 5654 5655 5657 5659 5661 5662 5663 5665 5667 5668 5669 5671 5672 5674 5675 5676 5677 5678 5679 5681 5682 5683 5684 5685 5686 5686 5687 5687 5687 5687 5687 5687 5687 5687 5687 5687 5687 5687 5687 5687 5687 5686 5686 5685 5685 5684 5684 5684 5684 5683 5683 5683 5682 5682 5683 5683 5683 5684 5684 5684 5686
5621 5620 5618 5618 5619 5619 5619 5620 5622 5624 5626 5627 5628 5628 5630 5633 5636 5639 5641 5641 5642 5642 5643 5645 5646 5648 5649 5651 5653 5654 5655 5656 5658 5660 5661 5662 5664 5666 5667 5668 5669 5670 5671 5673 5674 5675 5677 5678 5679 5679 5680 5680 5680 5681 5680 5680 5680 5680 5679 5679 5679 5678 5678 5678 5677 5677 5676 5676 5675 5675 5674 5673 5673 5672 5672 5671 5671 5670 5670 5670 5670 5669 5669 5669 5669 5670 5672
5613 5611 5610 5609 5610 5610 5611 5612 5614 5617 5618 5619 5619 5621 5624 5627 5631 5634 5637 5637 5636 5637 5638 5639 5641 5643 5644 5646 5648 5649 5650 5651 5653 5655 5656 5657 5659 5660 5662 5663 5664 5665 5666 5668 5669 5670 5671 5672 5673 5674 5674 5675 5675 5675 5674 5674 5673 5672 5672 5671 5671 5670 5669 5668 5667 5667 5666 5665 5664 5663 5662 5662 5661 5660 5660 5659 5659 5658 5658 5658 5657 5656 5655 5655 5656 5657 5657
5604 5601 5599 5599 5599 5600 5601 5603 5606 5609 5611 5612 5613 5616 5619 5622 5625 5629 5631 5631 5631 5632 5634 5635 5637 5639 5640 5642 5644 5645 5646 5647 5649 5650 5651 5652 5654 5655 5657 5658 5659 5661 5662 5663 5664 5665 5666 5667 5667 5668 5669 5669 5669 5668 5668 5667 5666 5665 5664 5663 5662 5661 5660 5658 5658 5657 5655 5654 5653 5652 5652 5651 5651 5650 5650 5649 5648 5647 5647 5647 5647 5646 5645 5644 5644 5644 5644
5594 5590 5588 5586 5586 5586 5588 5592 5596 5601 5604 5606 5608 5611 5614 5617 5620 5623 5625 5626 5627 5629 5630 5632 5633 5635 5636 5638 5639 5641 5642 5643 5645 5646 5647 5648 5649 5651 5652 5654 5655 5656 5657 5658 5659 5660 5661 5661 5662 5662 5663 5663 5662 5662 5661 5660 5659 5657 5656 5655 5654 5653 5651 5650 5649 5648 5647 5646 5645 5644 5643 5643 5642 5642 5641 5640 5639 5639 5638 5638 5638 5637 5636 5635 5634 5634 5634
5585 5581 5578 5575 5574 5574 5576 5581 5586 5592 5597 5601 5604 5607 5610 5613 5616 5618 5619 5621 5623 5625 5626 5628 5630 5631 5632 5634 5635 5637 5638 5639 5640 5642 5643 5644 5645 5646 5648 5649 5650 5651 5652 5653 5654 5655 5655 5656 5656 5657 5657 5657 5656 5655 5655 5654 5652 5651 5649 5648 5646 5645 5644 5642 5642 5641 5640 5639 5638 5637 5636 5636 5635 5634 5633 5632 5631 5631 5630 5629 5629 5628 5627 5626 5625 5624 5624
5578 5574 5571 5568 5567 5566 5568 5573 5579 5585 5591 5595 5599 5602 5606 5609 5612 5614 5615 5617 5619 5621 5623 5625 5626 5627 5629 5630 5631 5633 5634 5635 5636 5638 5639 5640 5641 5642 5643 5644 5646 5646 5647 5648 5649 5649 5650 5650 5651 5651 5651 5651 5650 5650 5649 5648 5647 5645 5643 5641 5639 5638 5637 5636 5635 5634 5633 5633 5632 5631 5630 5629 5627 5626 5625 5624 5623 5623 5622 5621 5620 5619 5618 5618 5616 5615 5615
5576 5572 5568 5566 5565 5565 5566 5571 5577 5582 5587 5591 5595 5599 5603 5606 5609 5611 5612 5614 5616 5618 5619 5621 5623 5624 5625 5627 5628 5629 5630 5631 5632 5634 5635 5636 5637 5637 5638 5640 5641 5641 5642 5643 5643 5644 5644 5645 5645 5645 5645 5645 5645 5645 5644 5643 5641 5639 5637 5635 5633 5632 5631 5630 5629 5628 5627 5626 5625 5624 5623 5622 5621 5619 5618 5617 5616 5615 5613 5612 5611 5611 5610 5609 5608 5607 5606
5576 5573 5571 5569 5568 5569 5570 5574 5579 5583 5586 5590 5594 5598 5601 5604 5607 5608 5610 5611 5613 5615 5616 5618 5619 5620 5622 5623 5624 5626 5627 5628 5629 5630 5631 5632 5632 5632 5633 5635 5636 5636 5637 5637 5638 5638 5639 5639 5639 5639 5640 5640 5639 5639 5638 5637 5636 5634 5632 5630 5628 5626 5625 5624 5623 5622 5621 5620 5619 5618 5617 5615 5614 5613 5611 5610 5609 5607 5606 5604 5603 5602 5601 5600 5599 5598 5597
5577 5576 5574 5573 5573 5574 5575 5577 5580 5583 5586 5589 5593 5596 5599 5602 5604 5606 5607 5609 5610 5612 5613 5614 5616 5617 5618 5620 5621 5622 5623 5624 5625 5626 5627 5628 5628 5628 5628 5629 5630 5631 5632 5632 5633 5633 5633 5633 5634 5634 5634 5634 5634 5633 5633 5632 5630 5629 5627 5625 5623 5621 5620 5619 5618 5617 5615 5614 5613 5612 5611 5610 5608 5606 5605 5603 5601 5600 5598 5597 5595 5594 5593 5591 5590 5589 5588
5579 5578 5576 5576 5576 5577 5578 5579 5582 5584 5587 5590 5592 5595 5597 5600 5603 5604 5605 5606 5607 5609 5610 5612 5613 5614 5615 5616 5617 5618 5619 5620 5621 5621 5622 5623 5624 5623 5623 5624 5625 5626 5626 5627 5627 5627 5627 5628 5628 5628 5628 5628 5628 5628 5627 5626 5625 5624 5622 5620 5619 5617 5615 5614 5613 5611 5610 5609 5608 5606 5605 5604 5602 5601 5599 5597 5595 5592 5591 5589 5587 5586 5584 5583 5581 5580 5579
5582 5580 5578 5578 5578 5579 5580 5581 5583 5585 5587 5589 5592 5594 5596 5598 5600 5601 5602 5603 5605 5606 5608 5609 5610 5611 5612 5612 5613 5614 5615 5616 5616 5617 5617 5618 5619 5619 5618 5618 5619 5620 5620 5621 5621 5622 5622 5622 5622 5622 5622 5622 5622 5622 5622 5621 5620 5619 5617 5616 5614 5612 5610 5609 5607 5606 5605 5604 5602 5601 5599 5598 5596 5595 5593 5591 5589 5586 5584 5582 5580 5578 5576 5575 5573 5572 5570
5584 5583 5581 5580 5580 5580 5581 5582 5584 5586 5587 5589 5591 5593 5595 5596 5598 5599 5600 5602 5603 5604 5605 5605 5606 5607 5608 5608 5609 5610 5610 5611 5611 5612 5612 5613 5614 5614 5613 5613 5614 5614 5614 5614 5615 5615 5616 5616 5616 5616 5616 5616 5616 5616 5616 5615 5614 5613 5612 5611 5609 5607 5605 5604 5602 5601 5600 5598 5596 5595 5594 5592 5591 5589 5587 5584 5582 5580 5578 5576 5574 5572 5569 5567 5565 5564 5562
5587 5585 5584 5583 5583 5583 5584 5585 5586 5587 5588 5589 5591 5592 5594 5596 5597 5598 5599 5599 5600 5601 5602 5602 5602 5603 5604 5605 5605 5605 5606 5607 5607 5607 5607 5607 5608 5609 5608 5608 5608 5608 5609 5609 5609 5609 5609 5609 5610 5610 5610 5610 5610 5610 5610 5609 5609 5608 5607 5606 5604 5603 5601 5599 5597 5596 5595 5593 5591 5589 5588 5587 5585 5583 5581 5579 5576 5574 5571 5569 5567 5565 5562 5560 5558 5556 5554